Miscellaneous Local Product
Issued by NWS Hastings, NE

Home | Current Version | Previous Version | Graphics & Text | Print | Product List | Glossary On
Versions: 1 2 3 4 5 6 7 8 9 10 11 12 13 14 15 16 17 18 19 20 21 22 23 24 25 26 27 28 29 30 31 32 33 34 35 36 37 38 39 40 41 42 43 44 45 46 47 48 49 50
000
AXUS43 KGID 222302
MISGRI

GID CWA HOURLY WEATHER ROUNDUP
NATIONAL WEATHER SERVICE HASTINGS NE
600 PM CDT SUN OCT 22 2017

NOTE: "FAIR" INDICATES FEW OR NO CLOUDS BELOW 12,000 FEET WITH NO
SIGNIFICANT WEATHER AND/OR OBSTRUCTIONS TO VISIBILITY.

...SOUTH CENTRAL NEBRASKA...

CITY           SKY/WX    TMP DP  RH WIND       PRES   REMARKS
GRAND ISLAND   CLEAR     66  30  26 SW9       30.00F
KEARNEY        CLEAR     65  27  23 SW10      29.99F
HASTINGS       CLEAR     67  25  20 SW6       30.01F
ORD            CLEAR     65  33  30 S8        29.93F
YORK           CLEAR     66  27  22 W9        30.00S
AURORA         CLEAR     66  28  23 SW5       30.00S
LEXINGTON      CLEAR     67  29  24 SW8       29.97F
HOLDREGE       CLOUDY    65  29  25 SW8       30.00F
HEBRON         CLEAR     67  27  21 SW5       30.03F

...NEBRASKA PANHANDLE...

CITY           SKY/WX    TMP DP  RH WIND       PRES   REMARKS
CHADRON        CLOUDY    71  26  18 W21G31    29.90S
ALLIANCE       CLOUDY    63  30  28 W15       29.98R
SCOTTSBLUFF    CLOUDY    66  29  24 W20G31    29.99S
SIDNEY         CLOUDY    64  29  26 NW12      30.03R

...WESTERN AND NORTH CENTRAL NEBRASKA...

CITY           SKY/WX    TMP DP  RH WIND       PRES   REMARKS
VALENTINE      CLEAR     69  30  23 W8        29.89S
AINSWORTH      PTCLDY    66  36  33 SW3       29.90S
ONEILL         CLEAR     62  35  35 SW6       29.91F
BROKEN BOW     CLEAR     64  35  34 SW8       29.94F
IMPERIAL       PTCLDY    70  26  19 W9        30.00F
NORTH PLATTE   CLOUDY    65  36  34 SW7       29.95F
MCCOOK         CLEAR     69  24  18 SW8       30.00F

...EASTERN NEBRASKA...

CITY           SKY/WX    TMP DP  RH WIND       PRES   REMARKS
NORFOLK        CLEAR     65  27  23 SW8       29.95F
SO SIOUX CITY  CLEAR     65  30  27 SW8       29.95F
TEKAMAH        CLEAR     67  24  19 SW7       29.97F
COLUMBUS       CLEAR     66  29  24 S7        29.98F
ALBION         CLEAR     65  32  28 SW8       29.96S
OMAHA EPPLEY   PTCLDY    68  29  23 S9        30.01S
OFFUTT AFB     CLEAR     66  29  25 S6        30.01S
MILLARD        CLEAR     69  31  24 S3        30.01S
LINCOLN        CLEAR     68  27  21 SW7       30.02S
NEBRASKA CITY  CLEAR     64  34  32 S9        30.04S
BEATRICE       CLEAR     67  31  26 SW8       30.03S
FALLS CITY     CLEAR     66  30  26 SW6       30.05F

...NORTHERN KANSAS...

CITY           SKY/WX    TMP DP  RH WIND       PRES   REMARKS
GOODLAND       CLEAR     65  21  18 SW8       30.05F
HILL CITY      CLEAR     70  21  15 SW8       30.05S
NORTON         CLEAR     68  10  10 S9G17     30.01F
PHILLIPSBURG   CLEAR     70  21  16 SW8       30.03F
SMITH CENTER   PTCLDY    63  27  25 SW6       30.04F
HAYS           CLEAR     69  25  19 SW9       30.05F
RUSSELL        CLEAR     70  25  18 SW8       30.04F
CONCORDIA      CLEAR     65  27  23 SW3       30.04F
SALINA         CLEAR     71  30  21 W6        30.07F
TOPEKA         CLEAR     67  35  30 SW5       30.08F



USA.gov is the U.S. government's official web portal to all federal, state and local government web resources and services.